Hourly Data Report for May 14, 2012

All times are specified in Local Standard Time (LST). Add 1 hour to adjust for Daylight Saving Time where and when it is observed.

OTTAWA INTL A
ONTARIO

45°19'00.000" N
75°40'00.000" W
114.90 m
6106001
71628
YOW

Download Data

Hourly Data (May 2012)
Hourly Data Report for May 14, 2012
Temp Definition
°C
Dew Point Temp Definition
°C
Rel Hum Definition
%
Wind Dir Definition
10's deg

Wind Spd Definition
km/h
Visibility Definition
km
Stn Press Definition
kPa
Hmdx Definition


Wind Chill Definition


Weather Definition


TIME
00:00 12.9 7.8 71 20 8 10.0 100.58     LegendNANA
01:00 11.4 8.1 80 26 8 10.0 100.55     Mainly Clear
02:00 11.0 7.7 80 24 6 10.0 100.53     LegendNANA
03:00 8.5 7.4 93 28 6 10.0 100.52     LegendNANA
04:00 7.0 6.1 94   0 10.0 100.53     Mostly Cloudy
05:00 9.6 7.9 89 31 5 10.0 100.55     LegendNANA
06:00 11.6 9.9 89 14 6 10.0 100.57     LegendNANA
07:00 14.2 11.0 81 11 7 10.0 100.59     Mainly Clear
08:00 17.0 12.0 72 9 8 10.0 100.61     LegendNANA
09:00 19.3 11.2 59 8 8 10.0 100.56     LegendNANA
10:00 20.7 9.4 48 12 9 10.0 100.52     Mainly Clear
11:00 22.0 7.2 38 19 8 10.0 100.47     LegendNANA
12:00 22.6 7.0 36 16 10 10.0 100.39     LegendNANA
13:00 23.7 5.8 31 15 15 10.0 100.33     Mainly Clear
14:00 23.8 6.8 33 16 15 10.0 100.27     LegendNANA
15:00 24.6 7.9 34 20 13 10.0 100.21 25   LegendNANA
16:00 24.8 8.9 36 20 13 10.0 100.15 26   Mostly Cloudy
17:00 23.5 10.4 43 21 17 10.0 100.15 25   LegendNANA
18:00 22.3 9.3 43 20 13 10.0 100.14     LegendNANA
19:00 20.2 9.0 48 19 12 10.0 100.16     Mostly Cloudy
20:00 17.5 9.0 57 18 11 10.0 100.20     LegendNANA
21:00 17.0 10.7 66 20 10 10.0 100.24     LegendNANA
22:00 15.4 11.2 76 18 6 10.0 100.25     Mainly Clear
23:00 13.9 10.9 82 18 7 10.0 100.26     LegendNANA

Notes on Data Quality.

Legend

  • E = Estimated
  • M = Missing
  • NA = Not Available
Date modified: